Tracking 31027 objects as of 19-Jul-2025
HD Live streaming from Space Station
objects crossing your sky now

STARLINK-3664

Track STARLINK-3664 now!
10-day predictions
STARLINK-3664 is classified as:


NORAD ID: 51984
Int'l Code: 2022-025AE
Perigee: 546.0 km
Apogee: 547.8 km
Inclination: 53.2 °
Period: 95.4 minutes
Semi major axis: 6917 km
RCS: Unknown
Launch date: March 9, 2022
Source: United States (US)
Launch site: AIR FORCE EASTERN TEST RANGE (AFETR)
Your satellite tracking list
IRIDIUM 33 DEB
Track 1 satellite(s)




NASA's NSSDC Master Catalog

Two Line Element Set (TLE):
1 51984U 22025AE  25199.49076143  .00000541  00000-0  52111-4 0  9992
2 51984  53.2180  10.5656 0001344  92.2665 267.8481 15.08836590185705
Source of the keplerian elements: AFSPC